JUDAS SCEL-SCEL

Flight info

Callsign JUDAS
Flight time 0h 26m
Altitude 18000
Route DGO6 DGO VTN VTN1D
Aircraft B767/H-SDFHIM3RYZ/6244

Departure

Time 2026-05-03 20:15
Airport Comodoro Arturo Merino Benítez International Airport (SCEL)

Arrival

Time 2026-05-03 20:42
Airport Comodoro Arturo Merino Benítez International Airport (SCEL)
Time Latitude Longitude Altitude Speed Heading
2026-05-03 20:15 -33.37203 -70.80372 1573 ft 12 kts 180°
2026-05-03 20:15 -33.37539 -70.80354 1573 ft 93 kts 177°
2026-05-03 20:15 -33.38547 -70.80301 1621 ft 190 kts 177°
2026-05-03 20:15 -33.39896 -70.80173 3030 ft 199 kts 172°
2026-05-03 20:16 -33.41003 -70.80064 4563 ft 165 kts 179°
2026-05-03 20:16 -33.42283 -70.80034 4766 ft 200 kts 179°
2026-05-03 20:16 -33.43730 -70.79980 5282 ft 222 kts 178°
2026-05-03 20:16 -33.45426 -70.79904 5609 ft 260 kts 178°
2026-05-03 20:17 -33.47305 -70.79810 6323 ft 282 kts 178°
2026-05-03 20:17 -33.49259 -70.79708 7400 ft 290 kts 179°
2026-05-03 20:17 -33.51292 -70.79602 8402 ft 301 kts 178°
2026-05-03 20:17 -33.53388 -70.79528 9549 ft 305 kts 185°
2026-05-03 20:18 -33.55405 -70.80175 10595 ft 307 kts 211°
2026-05-03 20:18 -33.57145 -70.81762 11186 ft 325 kts 231°
2026-05-03 20:18 -33.58438 -70.84065 11797 ft 342 kts 250°
2026-05-03 20:18 -33.59052 -70.86714 13106 ft 336 kts 266°
2026-05-03 20:19 -33.59005 -70.89481 14256 ft 335 kts 282°
2026-05-03 20:19 -33.58338 -70.92109 15578 ft 330 kts 291°
2026-05-03 20:19 -33.57637 -70.94669 16779 ft 329 kts 283°
2026-05-03 20:19 -33.57370 -70.97392 17803 ft 334 kts 272°
2026-05-03 20:20 -33.57480 -71.00201 18227 ft 344 kts 265°
2026-05-03 20:20 -33.57680 -71.03045 18199 ft 342 kts 265°
2026-05-03 20:20 -33.57947 -71.05821 18189 ft 333 kts 264°
2026-05-03 20:20 -33.58264 -71.08572 18203 ft 332 kts 263°
2026-05-03 20:21 -33.58617 -71.11316 18200 ft 335 kts 262°
2026-05-03 20:21 -33.58843 -71.14075 18189 ft 335 kts 272°
2026-05-03 20:21 -33.58444 -71.16801 18196 ft 335 kts 288°
2026-05-03 20:21 -33.57365 -71.19297 18196 ft 337 kts 304°
2026-05-03 20:22 -33.55706 -71.21304 18198 ft 343 kts 320°
2026-05-03 20:22 -33.53599 -71.22668 18198 ft 349 kts 335°
2026-05-03 20:22 -33.51218 -71.23270 18195 ft 356 kts 352°
2026-05-03 20:22 -33.48729 -71.23080 18203 ft 362 kts
2026-05-03 20:23 -33.46231 -71.22598 18203 ft 364 kts
2026-05-03 20:23 -33.43727 -71.22123 18195 ft 363 kts
2026-05-03 20:23 -33.41223 -71.21853 18123 ft 360 kts 355°
2026-05-03 20:23 -33.38706 -71.21855 17814 ft 363 kts 356°
2026-05-03 20:24 -33.36198 -71.21762 17492 ft 356 kts 357°
2026-05-03 20:24 -33.33722 -71.21663 17172 ft 350 kts 357°
2026-05-03 20:24 -33.31324 -71.21560 16871 ft 347 kts 357°
2026-05-03 20:24 -33.28888 -71.21452 15765 ft 369 kts 358°
2026-05-03 20:25 -33.26313 -71.21347 13163 ft 398 kts 359°
2026-05-03 20:25 -33.23578 -71.21216 11040 ft 394 kts 360°
2026-05-03 20:25 -33.20992 -71.21111 10900 ft 344 kts 359°
2026-05-03 20:25 -33.18766 -71.21008 10890 ft 307 kts
2026-05-03 20:26 -33.16708 -71.20918 10855 ft 285 kts 359°
2026-05-03 20:26 -33.14731 -71.20836 10841 ft 287 kts 359°
2026-05-03 20:26 -33.12653 -71.20752 10935 ft 310 kts 359°
2026-05-03 20:26 -33.10494 -71.20659 11667 ft 311 kts 359°
2026-05-03 20:27 -33.08298 -71.20573 12224 ft 318 kts 359°
2026-05-03 20:27 -33.06100 -71.20473 12697 ft 325 kts 359°
2026-05-03 20:27 -33.03832 -71.20370 12544 ft 323 kts 359°
2026-05-03 20:27 -33.01625 -71.20257 12387 ft 313 kts 359°
2026-05-03 20:28 -32.99429 -71.20146 12302 ft 314 kts 359°
2026-05-03 20:28 -32.97242 -71.20038 12298 ft 315 kts 358°
2026-05-03 20:28 -32.95060 -71.19937 12296 ft 314 kts 359°
2026-05-03 20:28 -32.92858 -71.19825 12310 ft 316 kts 359°
2026-05-03 20:29 -32.90646 -71.19692 11902 ft 322 kts 359°
2026-05-03 20:29 -32.88440 -71.19534 11337 ft 313 kts
2026-05-03 20:29 -32.86365 -71.18871 10700 ft 311 kts 21°
2026-05-03 20:29 -32.84584 -71.17467 10375 ft 299 kts 39°
2026-05-03 20:30 -32.83419 -71.15517 10293 ft 284 kts 64°
2026-05-03 20:30 -32.83114 -71.13243 10336 ft 286 kts 91°
2026-05-03 20:30 -32.83699 -71.10947 10380 ft 301 kts 114°
2026-05-03 20:30 -32.84660 -71.08755 10346 ft 300 kts 110°
2026-05-03 20:31 -32.85463 -71.06472 10286 ft 296 kts 107°
2026-05-03 20:31 -32.86181 -71.04189 10243 ft 294 kts 106°
2026-05-03 20:31 -32.86848 -71.01913 10203 ft 288 kts 104°
2026-05-03 20:31 -32.87486 -70.99667 10031 ft 287 kts 105°
2026-05-03 20:32 -32.88111 -70.97417 9781 ft 284 kts 104°
2026-05-03 20:32 -32.88717 -70.95207 9538 ft 282 kts 104°
2026-05-03 20:32 -32.89322 -70.92986 9304 ft 279 kts 104°
2026-05-03 20:32 -32.89916 -70.90803 9035 ft 278 kts 104°
2026-05-03 20:33 -32.90506 -70.88627 8792 ft 276 kts 104°
2026-05-03 20:33 -32.91765 -70.85178 8359 ft 278 kts 128°
2026-05-03 20:34 -32.99789 -70.82504 7259 ft 272 kts 173°
2026-05-03 20:34 -33.01648 -70.82301 7037 ft 268 kts 176°
2026-05-03 20:35 -33.03491 -70.82151 6986 ft 258 kts 177°
2026-05-03 20:35 -33.05238 -70.82054 6981 ft 247 kts 179°
2026-05-03 20:35 -33.06974 -70.81966 6565 ft 256 kts 178°
2026-05-03 20:35 -33.08776 -70.81873 6304 ft 251 kts 178°
2026-05-03 20:36 -33.10464 -70.81786 6118 ft 235 kts 178°
2026-05-03 20:36 -33.12072 -70.81701 5744 ft 232 kts 177°
2026-05-03 20:36 -33.13648 -70.81617 5542 ft 220 kts 179°
2026-05-03 20:36 -33.15142 -70.81537 5430 ft 212 kts 177°
2026-05-03 20:37 -33.16612 -70.81459 5257 ft 209 kts 179°
2026-05-03 20:37 -33.18043 -70.81383 5175 ft 200 kts 177°
2026-05-03 20:37 -33.19405 -70.81313 5039 ft 197 kts 178°
2026-05-03 20:37 -33.20796 -70.81235 4808 ft 201 kts 178°
2026-05-03 20:38 -33.22205 -70.81161 4551 ft 203 kts 179°
2026-05-03 20:38 -33.23611 -70.81087 4291 ft 201 kts 176°
2026-05-03 20:38 -33.24984 -70.81010 3994 ft 192 kts 178°
2026-05-03 20:38 -33.26291 -70.80944 3725 ft 183 kts 177°
2026-05-03 20:39 -33.27536 -70.80875 3525 ft 170 kts 175°
2026-05-03 20:39 -33.28647 -70.80819 3317 ft 153 kts 176°
2026-05-03 20:39 -33.29686 -70.80763 3030 ft 143 kts 176°
2026-05-03 20:39 -33.30638 -70.80711 2786 ft 134 kts 176°
2026-05-03 20:40 -33.31559 -70.80650 2632 ft 134 kts 176°
2026-05-03 20:40 -33.32525 -70.80607 2479 ft 140 kts 177°
2026-05-03 20:40 -33.33485 -70.80540 2317 ft 135 kts 178°
2026-05-03 20:40 -33.34427 -70.80489 2144 ft 140 kts 178°
2026-05-03 20:41 -33.35396 -70.80450 1952 ft 137 kts 178°
2026-05-03 20:41 -33.36360 -70.80420 1777 ft 137 kts 177°
2026-05-03 20:41 -33.37280 -70.80370 1575 ft 131 kts 175°
2026-05-03 20:41 -33.38084 -70.80325 1574 ft 85 kts 177°
2026-05-03 20:42 -33.38634 -70.80287 1574 ft 75 kts 178°
2026-05-03 20:42 -33.38914 -70.80279 1574 ft 26 kts 178°
2026-05-03 20:42 -33.39109 -70.80269 1574 ft 29 kts 173°
2026-05-03 20:42 -33.39317 -70.80200 1573 ft 32 kts 157°
2026-05-03 20:43 -33.39433 -70.80115 1573 ft 8 kts 142°
2026-05-03 20:43 -33.39465 -70.80074 1573 ft 4 kts 95°
2026-05-03 20:43 -33.39439 -70.80042 1573 ft 6 kts 21°
2026-05-03 20:43 -33.39375 -70.80030 1574 ft 17 kts 23°
2026-05-03 20:44 -33.39338 -70.79801 1575 ft 36 kts 89°
2026-05-03 20:44 -33.39330 -70.79546 1582 ft 18 kts 86°
2026-05-03 20:44 -33.39324 -70.79471 1584 ft 0 kts 88°
2026-05-03 20:44 -33.39319 -70.79279 1590 ft 40 kts 89°
2026-05-03 20:45 -33.39312 -70.79018 1590 ft 25 kts 88°
2026-05-03 20:45 -33.39231 -70.78903 1589 ft 21 kts 357°
2026-05-03 20:45 -33.39067 -70.78911 1587 ft 25 kts 358°
2026-05-03 20:45 -33.38882 -70.78921 1587 ft 28 kts 357°
2026-05-03 20:46 -33.38677 -70.78938 1584 ft 31 kts 358°
2026-05-03 20:46 -33.38450 -70.78943 1582 ft 33 kts 356°
2026-05-03 20:46 -33.38235 -70.78971 1580 ft 23 kts 338°
2026-05-03 20:46 -33.38089 -70.79080 1580 ft 25 kts 327°
2026-05-03 20:47 -33.37937 -70.79195 1579 ft 21 kts 327°
2026-05-03 20:47 -33.37898 -70.79323 1577 ft 15 kts 228°
2026-05-03 20:47 -33.37942 -70.79401 1577 ft 0 kts 238°